Content
SEND FEEDBACK

Daily
Averages
Monthly
Summary
United States of America

MUSCODA, WISCONSIN


Home > North America > United States > Wisconsin
Elevation: 700 feet     Latitude: 43 12N     Longitude: 090 26W

WEATHER
 
SELECT A DAY
Number of Records: 176,452;   Date Range: 1/1/95 - 9/3/14
 
SHARE

PRINT THIS DATA

[ ← Previous Day ]
WEATHER ALMANAC - FEBRUARY 5, 2013
[ Next Day → ]
[ °C ]   °F
Weather ElementAverageHighLow
Temperature21.2 °F30.9 °F (2:56 pm)3.9 °F (1:56 am)
Dewpoint15.5 °F23 °F (1:56 pm)-0.9 °F (1:56 am)
Humidity79 %93 % (10:18 am)63 % (8:56 pm)
Barometer29.87 in30.12 in (11:56 pm)29.77 in (9:24 am)
Wind Speed6.2 mph13.8 mph (12:56 pm)
Weather ElementAverage
Visibility4.7 mi
Wind DirectionSW (221.3 °)

Weather ElementTotal
Precipitation0.22 in
Heating Degree Days47.6 (Base 65)
Averaged from 38 records on February 5, 2013
WEATHER CONDITIONS BREAKOUT
WIND DIRECTION BREAKOUT
WEATHER BY HOUR - FEBRUARY 5, 2013
[ °C ]   °F
Local TimeTemperatureDewpointHumidityBarometerVisibilityWind DirectionWind SpeedGust SpeedPrecipitationEventsConditions
1:56 AM3.9 °F-0.9 °F80 %29.92 in9.0 miCalmClear
2:56 AM10.0 °F6.1 °F84 %29.90 in9.0 miEast (100°)3.5 mphOvercast
3:54 AM14.0 °F8.6 °F79 %29.84 in1.8 miSouth (180°)5.8 mph0.00 inSnowLight Snow
3:56 AM14.0 °F9.0 °F80 %29.86 in1.8 miSouth (190°)4.6 mph0.00 inSnowLight Snow
4:54 AM15.8 °F10.4 °F79 %29.83 in2.0 miCalm0.01 inSnowLight Snow
4:56 AM15.1 °F10.9 °F84 %29.85 in2.0 miCalm0.01 inSnowLight Snow
5:21 AM15.8 °F10.4 °F79 %29.79 in4.0 miSSE (150°)5.8 mph0.00 inHaze
5:56 AM17.1 °F12.0 °F81 %29.82 in8.0 miSSW (210°)5.8 mph0.00 inOvercast
6:42 AM17.6 °F12.2 °F79 %29.79 in7.0 miSW (220°)5.8 mphOvercast
6:56 AM19.0 °F12.9 °F77 %29.81 in7.0 miSSW (210°)5.8 mphOvercast
7:31 AM19.4 °F12.2 °F74 %29.78 in5.0 miSW (220°)5.8 mphHaze
7:56 AM19.0 °F14.0 °F81 %29.81 in5.0 miSW (220°)4.6 mphHaze
8:56 AM21.0 °F15.1 °F78 %29.81 in1.8 miWSW (240°)3.5 mph0.00 inSnowLight Snow
9:24 AM21.2 °F17.6 °F86 %29.77 in0.8 miWSW (240°)6.9 mph0.00 inSnowLight Snow
9:52 AM21.2 °F17.6 °F86 %29.77 in0.2 miSW (230°)6.9 mph0.01 inFog-SnowSnow
9:56 AM21.9 °F18.0 °F85 %29.80 in0.2 miWSW (240°)4.6 mph0.02 inFog-SnowSnow
10:10 AM21.2 °F17.6 °F86 %29.78 in0.2 miWest (260°)5.8 mph0.01 inFog-SnowHeavy Snow
10:18 AM21.2 °F19.4 °F93 %29.78 in0.2 miWSW (250°)5.8 mph0.02 inFog-SnowHeavy Snow
10:29 AM21.2 °F19.4 °F93 %29.78 in0.2 miWSW (240°)4.6 mph0.03 inFog-SnowLight Snow
10:37 AM21.2 °F19.4 °F93 %29.78 in0.5 miWSW (250°)4.6 mph0.03 inFog-SnowLight Snow
10:54 AM23.0 °F19.4 °F86 %29.78 in0.8 miWSW (240°)4.6 mph0.03 inSnowLight Snow
10:56 AM23.0 °F19.0 °F85 %29.80 in0.8 miWSW (240°)4.6 mph0.03 inSnowLight Snow
11:42 AM24.8 °F21.2 °F86 %29.78 in1.5 miWest (270°)8.1 mph0.01 inSnowLight Snow
11:56 AM26.1 °F21.0 °F81 %29.81 in2.5 miWest (270°)12.7 mph0.01 inSnowLight Snow
12:03 PM26.6 °F19.4 °F74 %29.78 in3.0 miWest (270°)11.5 mph0.00 inHaze
12:56 PM28.0 °F21.0 °F75 %29.81 in5.0 miWest (280°)13.8 mph0.00 inHaze
1:56 PM30.0 °F23.0 °F75 %29.82 in5.0 miWNW (300°)8.1 mphHaze
2:56 PM30.9 °F23.0 °F72 %29.86 in6.0 miNW (310°)12.7 mphHaze
3:56 PM30.9 °F23.0 °F72 %29.89 in5.0 miWNW (300°)9.2 mphHaze
5:56 PM30.9 °F21.0 °F67 %29.96 in8.0 miNW (310°)8.1 mphOvercast
6:36 PM30.2 °F19.4 °F64 %29.96 in10.0 miNW (310°)9.2 mphOvercast
6:56 PM30.0 °F19.0 °F64 %30.00 in10.0 miNW (310°)6.9 mphOvercast
7:56 PM28.9 °F18.0 °F64 %30.03 in10.0 miNNW (330°)10.4 mphOvercast
8:56 PM27.0 °F16.0 °F63 %30.05 in10.0 miNNW (330°)6.9 mphOvercast
9:56 PM25.0 °F15.1 °F66 %30.08 in10.0 miWNW (290°)4.6 mphOvercast
10:56 PM17.1 °F10.9 °F77 %30.09 in9.0 miNNE (30°)4.6 mphMostly Cloudy
11:04 PM14.0 °F10.4 °F86 %30.07 in9.0 miNorth (10°)5.8 mphScattered Clouds
11:56 PM9.0 °F6.1 °F88 %30.12 in7.0 miNorth (360°)3.5 mphClear
Hourly data recorded from KLNR, located miles away from Muscoda, Wisconsin







STORIES FROM OUR PARTNERS